Location: Unspecified
(41.1637°N, 24.2901°E)
Time: 10:54:35
(UTC+02:00)

ISS - Pass Details

Date: 12 May 2026
Orbit: 414 x 424 km, 51.6° (Epoch: 12 May)

Event Time Altitude Azimuth Distance (km) Brightness Sun altitude
Rises 22:33:38 0° 299° (WNW) 2,352 0.9 -25.7°
Reaches altitude 10° 22:36:33 10° 327° (NNW) 1,491 0.0 -25.9°
Maximum altitude 22:38:21 14° 360° (N) 1,288 -0.6 -26.1°
Drops below altitude 10° 22:40:09 10° 32° (NNE) 1,493 -0.6 -26.2°
Enters shadow 22:40:30 - 37° (NE) 1,573 -0.6 -26.3°
